Location: Mauries
(43.6188°N, 0.3322°W)
Time: 05:39:18
(UTC+00:00)

Cosmos 1408 Rocket - Pass Details

Date: 14 January 2026
Orbit: 594 x 623 km, 82.6° (Epoch: 14 February)

Event Time Altitude Azimuth Distance (km) Brightness Sun altitude
Rises 06:02:05 0° 201° (SSW) 2,864 6.9 -15.9°
Reaches altitude 10° 06:04:22 10° 206° (SSW) 1,959 6.0 -15.5°
Maximum altitude 06:08:34 48° 282° (WNW) 796 3.7 -14.8°
Drops below altitude 10° 06:12:45 10° 357° (N) 1,957 5.9 -14.1°
Sets 06:15:02 0° 3° (N) 2,860 6.8 -13.7°
